When you browse on this site, cookies collect data to enhance your experience and personalize the content and advertising you see.
Visit our Privacy Policy to learn more. By continuing to use the site, you agree to this use of cookies and data.
  • In Hungary
  • List of Countries
  • For 7 days
  • Water Temperature
  • Satellite Maps
  • Weather Map
  • News
  • Weather Widgets
  • user-avatar
    Login

    Hourly Weather Muskegon

    Today, 18 July, Thursday

    Time Temperature Precipitation Wind Pressure Humidity
    00:00 +24°C° 0.2 mm 3 mps 743 mmHg 97%
    01:00 +24°C° 0.2 mm 3 mps 742 mmHg 97%
    02:00 +23°C° 0.2 mm 4 mps 742 mmHg 98%
    03:00 +23°C° 0.2 mm 4 mps 742 mmHg 98%
    04:00 +23°C° 0 mm 4 mps 742 mmHg 97%
    05:00 +23°C° 0 mm 5 mps 742 mmHg 96%
    06:00 +25°C° 0 mm 5 mps 742 mmHg 95%
    07:00 +26°C° 0.1 mm 6 mps 742 mmHg 90%
    08:00 +27°C° 0.1 mm 6 mps 741 mmHg 85%
    09:00 +28°C° 0.1 mm 7 mps 741 mmHg 80%
    10:00 +28°C° 0 mm 7 mps 740 mmHg 79%
    11:00 +28°C° 0 mm 7 mps 740 mmHg 77%
    12:00 +29°C° 0 mm 7 mps 740 mmHg 75%
    13:00 +29°C° 0 mm 7 mps 739 mmHg 75%
    14:00 +30°C° 0 mm 7 mps 739 mmHg 75%
    15:00 +30°C° 0 mm 7 mps 739 mmHg 76%
    16:00 +29°C° 0.4 mm 6 mps 738 mmHg 80%
    17:00 +29°C° 0.4 mm 5 mps 738 mmHg 84%
    18:00 +28°C° 0.4 mm 5 mps 738 mmHg 88%
    19:00 +28°C° 0.1 mm 5 mps 738 mmHg 90%
    20:00 +27°C° 0.1 mm 5 mps 738 mmHg 92%
    21:00 +27°C° 0.1 mm 5 mps 738 mmHg 94%
    22:00 +27°C° 2.4 mm 6 mps 738 mmHg 94%
    23:00 +27°C° 2.4 mm 6 mps 738 mmHg 95%

    Tomorrow, 19 July, Friday

    Time Temperature Precipitation Wind Pressure Humidity
    00:00 +27°C° 2.4 mm 6 mps 738 mmHg 96%
    01:00 +27°C° 3 mm 6 mps 738 mmHg 96%
    02:00 +27°C° 3 mm 6 mps 738 mmHg 96%
    03:00 +27°C° 3 mm 6 mps 738 mmHg 96%
    04:00 +27°C° 0.8 mm 6 mps 738 mmHg 96%
    05:00 +27°C° 0.8 mm 6 mps 738 mmHg 95%
    06:00 +27°C° 0.8 mm 6 mps 738 mmHg 95%
    07:00 +28°C° 0.5 mm 6 mps 739 mmHg 93%
    08:00 +28°C° 0.5 mm 7 mps 739 mmHg 92%
    09:00 +29°C° 0.5 mm 7 mps 739 mmHg 90%
    10:00 +29°C° 0.2 mm 6 mps 739 mmHg 87%
    11:00 +29°C° 0.2 mm 6 mps 739 mmHg 85%
    12:00 +30°C° 0.2 mm 5 mps 739 mmHg 82%
    13:00 +30°C° 0 mm 5 mps 739 mmHg 81%
    14:00 +32°C° 0 mm 5 mps 739 mmHg 79%
    15:00 +32°C° 0 mm 5 mps 739 mmHg 78%
    16:00 +32°C° 0 mm 5 mps 739 mmHg 80%
    17:00 +30°C° 0 mm 5 mps 739 mmHg 82%
    18:00 +30°C° 0 mm 5 mps 739 mmHg 84%
    19:00 +29°C° 0 mm 5 mps 739 mmHg 84%
    20:00 +29°C° 0 mm 5 mps 739 mmHg 85%
    21:00 +28°C° 0 mm 5 mps 739 mmHg 86%
    22:00 +28°C° 0 mm 5 mps 739 mmHg 88%
    23:00 +28°C° 0 mm 5 mps 739 mmHg 90%

    Day after tomorrow, 20 July, Saturday

    Time Temperature Precipitation Wind Pressure Humidity
    00:00 +28°C° 0 mm 5 mps 740 mmHg 92%
    01:00 +28°C° 0 mm 5 mps 739 mmHg 91%
    02:00 +28°C° 0 mm 5 mps 739 mmHg 91%
    03:00 +28°C° 0 mm 6 mps 739 mmHg 91%
    04:00 +28°C° 0.3 mm 6 mps 740 mmHg 91%
    05:00 +28°C° 0.3 mm 6 mps 740 mmHg 92%
    06:00 +27°C° 0.3 mm 6 mps 740 mmHg 93%
    07:00 +28°C° 0.5 mm 4 mps 740 mmHg 90%
    08:00 +28°C° 0.5 mm 3 mps 741 mmHg 88%
    09:00 +28°C° 0.5 mm 1 mps 741 mmHg 85%
    10:00 +28°C° 1 mm 3 mps 741 mmHg 84%
    11:00 +28°C° 1 mm 4 mps 742 mmHg 82%
    12:00 +28°C° 1 mm 5 mps 742 mmHg 80%
    13:00 +28°C° 0.4 mm 4 mps 742 mmHg 79%
    14:00 +28°C° 0.4 mm 4 mps 741 mmHg 79%
    15:00 +28°C° 0.4 mm 3 mps 741 mmHg 78%
    16:00 +27°C° 0.5 mm 2 mps 741 mmHg 82%
    17:00 +26°C° 0.5 mm 1 mps 741 mmHg 86%
    18:00 +25°C° 0.5 mm 1 mps 741 mmHg 90%
    19:00 +24°C° 0 mm 1 mps 741 mmHg 91%
    20:00 +23°C° 0 mm 1 mps 741 mmHg 92%
    21:00 +22°C° 0 mm 1 mps 741 mmHg 93%
    22:00 +22°C° 0.9 mm 1 mps 741 mmHg 93%
    23:00 +22°C° 0.9 mm 1 mps 741 mmHg 93%

    21 July, Sunday

    Time Temperature Precipitation Wind Pressure Humidity
    00:00 +22°C° 0.9 mm 1 mps 741 mmHg 92%
    01:00 +22°C° 0.4 mm 1 mps 741 mmHg 92%
    02:00 +22°C° 0.4 mm 1 mps 740 mmHg 92%
    03:00 +20°C° 0.4 mm 2 mps 740 mmHg 93%
    04:00 +20°C° 1.1 mm 2 mps 740 mmHg 93%
    05:00 +21°C° 1.1 mm 2 mps 740 mmHg 94%
    06:00 +21°C° 1.1 mm 2 mps 740 mmHg 95%
    07:00 +21°C° 0.3 mm 3 mps 741 mmHg 94%
    08:00 +20°C° 0.3 mm 4 mps 741 mmHg 93%
    09:00 +20°C° 0.3 mm 5 mps 741 mmHg 92%
    10:00 +22°C° 0 mm 5 mps 741 mmHg 85%
    11:00 +23°C° 0 mm 5 mps 741 mmHg 78%
    12:00 +26°C° 0 mm 5 mps 742 mmHg 71%
    13:00 +26°C° 0 mm 5 mps 742 mmHg 69%
    14:00 +27°C° 0 mm 5 mps 742 mmHg 67%
    15:00 +27°C° 0 mm 5 mps 743 mmHg 64%
    16:00 +26°C° 0 mm 5 mps 743 mmHg 67%
    17:00 +25°C° 0 mm 5 mps 743 mmHg 69%
    18:00 +23°C° 0 mm 5 mps 743 mmHg 72%
    19:00 +22°C° 0 mm 5 mps 744 mmHg 70%
    20:00 +20°C° 0 mm 6 mps 744 mmHg 69%
    21:00 +19°C° 0 mm 6 mps 745 mmHg 67%
    22:00 +17°C° 0 mm 6 mps 745 mmHg 62%
    23:00 +16°C° 0 mm 5 mps 745 mmHg 57%

    22 July, Monday

    Time Temperature Precipitation Wind Pressure Humidity
    00:00 +15°C° 0 mm 5 mps 745 mmHg 52%
    01:00 +14°C° 0 mm 5 mps 745 mmHg 55%
    02:00 +14°C° 0 mm 4 mps 746 mmHg 59%
    03:00 +13°C° 0 mm 4 mps 746 mmHg 62%
    04:00 +13°C° 0 mm 3 mps 746 mmHg 65%
    05:00 +14°C° 0 mm 3 mps 746 mmHg 69%
    06:00 +14°C° 0 mm 3 mps 747 mmHg 72%
    07:00 +17°C° 0 mm 4 mps 747 mmHg 67%
    08:00 +19°C° 0 mm 4 mps 747 mmHg 62%
    09:00 +21°C° 0 mm 5 mps 747 mmHg 57%
    10:00 +22°C° 0 mm 5 mps 747 mmHg 56%
    11:00 +22°C° 0 mm 6 mps 747 mmHg 54%
    12:00 +23°C° 0 mm 6 mps 747 mmHg 53%
    13:00 +23°C° 0 mm 7 mps 747 mmHg 53%
    14:00 +23°C° 0 mm 7 mps 747 mmHg 53%
    15:00 +23°C° 0 mm 7 mps 747 mmHg 53%
    16:00 +22°C° 0 mm 6 mps 746 mmHg 56%
    17:00 +21°C° 0 mm 5 mps 746 mmHg 59%
    18:00 +20°C° 0 mm 4 mps 746 mmHg 63%
    19:00 +19°C° 0 mm 3 mps 747 mmHg 64%
    20:00 +17°C° 0 mm 3 mps 747 mmHg 66%
    21:00 +16°C° 0 mm 2 mps 747 mmHg 68%
    22:00 +16°C° 0 mm 1 mps 747 mmHg 69%
    23:00 +15°C° 0 mm 1 mps 747 mmHg 70%

    23 July, Tuesday

    Time Temperature Precipitation Wind Pressure Humidity
    00:00 +15°C° 0 mm 1 mps 747 mmHg 72%
    01:00 +15°C° 0 mm 1 mps 747 mmHg 73%
    02:00 +14°C° 0 mm 2 mps 747 mmHg 74%
    03:00 +14°C° 0 mm 2 mps 747 mmHg 76%
    04:00 +15°C° 0 mm 2 mps 747 mmHg 76%
    05:00 +15°C° 0 mm 2 mps 748 mmHg 77%
    06:00 +16°C° 0 mm 1 mps 748 mmHg 77%
    07:00 +18°C° 0 mm 2 mps 748 mmHg 67%
    08:00 +20°C° 0 mm 2 mps 748 mmHg 57%
    09:00 +23°C° 0 mm 2 mps 748 mmHg 48%
    10:00 +24°C° 0 mm 2 mps 748 mmHg 47%
    11:00 +25°C° 0 mm 3 mps 748 mmHg 46%
    12:00 +25°C° 0 mm 3 mps 747 mmHg 46%
    13:00 +25°C° 0 mm 3 mps 747 mmHg 47%
    14:00 +25°C° 0 mm 3 mps 747 mmHg 49%
    15:00 +25°C° 0 mm 3 mps 747 mmHg 50%
    16:00 +24°C° 0 mm 3 mps 746 mmHg 57%
    17:00 +22°C° 0 mm 3 mps 746 mmHg 63%
    18:00 +21°C° 0 mm 3 mps 746 mmHg 70%
    19:00 +20°C° 0 mm 3 mps 746 mmHg 73%
    20:00 +19°C° 0 mm 3 mps 746 mmHg 76%
    21:00 +18°C° 0 mm 3 mps 747 mmHg 79%
    22:00 +19°C° 0.1 mm 3 mps 747 mmHg 83%
    23:00 +19°C° 0.1 mm 4 mps 746 mmHg 86%
    Show more